Simultaneous Nadir Overpasses (SNOs) Predictions

Prediction of SNOs between METOP-B and NOAA-19 Satellite Orbit:

Table of predicted SNOs for the next 14.0 days since TLE Epoch: 7/27/2024
Index Date (METOP-B) Time (METOP-B) Lat,Lon (METOP-B) SZA (METOP-B ) Date (NOAA-19) Time (NOAA-19) Lat,Lon (NOAA-19) SZA (NOAA-19 ) Distance(km) Time Diff (sec)
1 08/06/2024 00:27:28 48.92, -56.77 100.34 08/06/2024 00:26:24 48.93, -56.78 100.19 1.12 64
2 08/06/2024 01:17:51 -48.04, 110.94 78.93 08/06/2024 01:16:59 -48.02, 110.91 79.05 3.57 52
3 08/06/2024 02:08:11 46.69, -81.19 102.20 08/06/2024 02:07:42 46.65, -81.29 102.11 8.59 29
4 08/06/2024 02:58:36 -45.93, 86.45 77.17 08/06/2024 02:58:20 -45.92, 86.30 77.28 11.65 16
5 08/06/2024 03:49:05 45.08,-105.91 103.53 08/06/2024 03:49:12 45.06,-106.13 103.44 18.03 7
6 08/06/2024 04:39:43 -45.08, 61.44 76.46 08/06/2024 04:40:02 -45.01, 61.17 76.52 21.88 19
7 08/06/2024 05:30:27 45.10,-131.25 103.54 08/06/2024 05:31:09 45.01,-131.60 103.50 29.17 42



Historial Predications of SNOs between METOP-B and NOAA-19
